Location: Unnamed
(51.8936°N, 11.0665°E)
Time: 17:41:15
(UTC+02:00)

NO-84 - Pass Details

Date: 04 October 2021
Orbit: 286 x 358 km, 55.0° (Epoch: 13 October)

Event Time Altitude Azimuth Distance (km) Brightness Sun altitude
Rises 19:08:05 0° 206° (SSW) 1,981 ? -4.2°
Reaches altitude 10° 19:10:19 10° 185° (S) 1,178 ? -4.6°
Maximum altitude 19:12:12 18° 139° (SE) 858 ? -4.9°
Drops below altitude 10° 19:14:07 10° 93° (E) 1,213 ? -5.2°
Enters shadow 19:14:47 - 85° (E) 1,429 ? -5.3°
